Date String (YYYY-MM-DD hh:mm:ss) UTC,Instrument flags,Ambient pressure (hPa),Sample flow (lpm),Bypass flow (lpm),Sample temperature (°C),Ambient temperature (°C),ASC tube jacket temperature (°C),LED temperature (°C),Box temperature (°C),Sample RH (%),Span deviation,Mass concentration (μg/m³),Mass concentration (μg/m³),Mass concentration (μg/m³)
DateTimeUTC,F1_M11,P_M11,Q1_M11,Q2_M11,T1_M11,T2_M11,T3_M11,T4_M11,T5_M11,U1_M11,ZSPAN_M11,X0_M11,X2_M11,X1_M11
2022-01-20 06:00:00,,0833.3,5.01,0.00,22.0,21.9,00.0,30.8,23.8,10.6,-000.2,0008.01,0005.74,0005.46
2022-01-20 06:01:00,,0833.2,5.00,0.00,22.0,21.7,00.0,30.9,23.7,10.6,-000.2,0008.01,0005.75,0005.47
2022-01-20 06:02:00,,0833.3,4.99,0.00,22.0,21.5,00.0,30.9,23.7,10.6,-000.1,0008.02,0005.77,0005.48
2022-01-20 06:03:00,,0833.3,5.01,0.00,22.0,21.3,00.0,30.9,23.6,10.6,-000.1,0008.02,0005.77,0005.49
2022-01-20 06:04:00,,0833.3,4.99,0.00,21.9,21.2,00.0,30.8,23.6,10.7,-000.1,0008.06,0005.80,0005.51
2022-01-20 06:05:00,,0833.3,5.00,0.00,21.9,21.1,00.0,30.8,23.6,10.7,0000.0,0008.06,0005.83,0005.54
2022-01-20 06:06:00,,0833.3,5.01,0.00,21.9,21.1,00.0,30.8,23.5,10.7,0000.1,0008.07,0005.86,0005.56
2022-01-20 06:07:00,,0833.3,4.99,0.00,21.8,21.1,00.0,30.8,23.5,10.7,0000.3,0008.13,0005.91,0005.60
2022-01-20 06:08:00,,0833.3,5.00,0.00,21.8,21.1,00.0,30.8,23.5,10.8,0000.3,0008.09,0005.93,0005.62
2022-01-20 06:09:00,,0833.3,5.01,0.00,21.8,21.0,00.0,30.8,23.5,10.7,-000.4,0008.15,0005.98,0005.66
2022-01-20 06:10:00,,0833.3,5.00,0.00,21.8,21.0,00.0,30.8,23.4,10.8,0000.6,0008.16,0006.00,0005.67
2022-01-20 06:11:00,,0833.3,5.01,0.00,21.8,21.0,00.0,30.7,23.4,10.8,0001.0,0008.15,0006.02,0005.72
2022-01-20 06:12:00,,0833.3,5.01,0.00,21.8,21.6,00.0,30.8,23.5,10.8,0001.1,0008.24,0006.05,0005.74
2022-01-20 06:13:00,,0833.3,4.99,0.00,21.9,22.5,00.0,30.8,23.8,10.7,0000.6,0008.29,0006.10,0005.78
2022-01-20 06:14:00,,0833.3,4.99,0.00,22.1,23.0,00.0,30.9,24.1,10.6,0000.0,0008.37,0006.15,0005.82
2022-01-20 06:15:00,,0833.2,5.01,0.00,22.2,22.8,00.0,30.9,24.1,10.5,0000.3,0008.40,0006.18,0005.83
2022-01-20 06:16:00,,0833.1,5.00,0.00,22.2,22.4,00.0,30.9,24.0,10.5,0000.0,0008.43,0006.20,0005.84
2022-01-20 06:17:00,,0833.1,5.00,0.00,22.1,22.1,00.0,30.9,23.9,10.5,0001.1,0008.49,0006.24,0005.87
2022-01-20 06:18:00,,0833.2,5.03,0.00,22.1,21.8,00.0,30.9,23.8,10.5,0001.6,0008.53,0006.28,0005.90
2022-01-20 06:19:00,,0833.2,4.99,0.00,22.1,21.6,00.0,30.9,23.7,10.6,0001.4,0008.62,0006.35,0005.95
2022-01-20 06:20:00,,0833.2,5.01,0.00,22.0,21.4,00.0,30.9,23.7,10.6,0001.3,0008.64,0006.40,0005.99
2022-01-20 06:21:00,,0833.1,5.01,0.00,22.0,21.3,00.0,30.9,23.6,10.6,0000.6,0008.67,0006.44,0006.04
2022-01-20 06:22:00,,0833.1,4.99,0.00,21.9,21.1,00.0,30.9,23.6,10.7,-000.6,0008.72,0006.48,0006.06
2022-01-20 06:23:00,,0833.2,5.01,0.00,21.9,20.9,00.0,30.9,23.5,10.7,-001.2,0008.70,0006.50,0006.08
2022-01-20 06:24:00,,0833.1,4.99,0.00,21.8,20.9,00.0,30.8,23.4,10.7,-001.3,0008.64,0006.50,0006.09
2022-01-20 06:25:00,,0833.1,5.00,0.00,21.8,20.8,00.0,30.8,23.4,10.7,-001.3,0008.64,0006.51,0006.11
2022-01-20 06:26:00,,0833.1,4.99,0.00,21.8,20.8,00.0,30.8,23.3,10.8,-001.5,0008.66,0006.54,0006.15
2022-01-20 06:27:00,,0833.1,5.02,0.00,21.7,20.7,00.0,30.8,23.3,10.8,-001.4,0008.68,0006.57,0006.18
2022-01-20 06:28:00,,0833.1,4.99,0.00,21.7,20.7,00.0,30.8,23.3,10.8,-001.3,0008.66,0006.57,0006.19
2022-01-20 06:29:00,,0833.2,5.01,0.00,21.7,21.3,00.0,30.8,23.4,10.8,-001.4,0008.64,0006.57,0006.19
2022-01-20 06:30:00,,0833.1,5.01,0.00,21.9,22.3,00.0,30.8,23.7,10.7,-001.3,0008.72,0006.56,0006.19
2022-01-20 06:31:00,,0833.1,5.00,0.00,22.0,23.0,00.0,30.8,24.0,10.6,-001.2,0008.74,0006.55,0006.18
2022-01-20 06:32:00,,0833.1,5.00,0.00,22.1,22.8,00.0,30.9,24.0,10.6,-001.1,0008.68,0006.53,0006.17
2022-01-20 06:33:00,,0833.2,4.99,0.00,22.1,22.4,00.0,30.9,24.0,10.6,0000.0,0008.69,0006.54,0006.17
2022-01-20 06:34:00,,0833.1,5.01,0.00,22.1,22.1,00.0,30.9,23.9,10.6,0000.0,0008.67,0006.53,0006.16
2022-01-20 06:35:00,,0833.1,5.00,0.00,22.1,21.9,00.0,30.9,23.8,10.6,0000.5,0008.85,0006.54,0006.16
2022-01-20 06:36:00,,0833.1,4.99,0.00,22.1,21.8,00.0,30.9,23.8,10.6,0000.7,0008.91,0006.54,0006.16
2022-01-20 06:37:00,,0833.1,5.00,0.00,22.0,21.7,00.0,30.9,23.8,10.6,0000.6,0008.88,0006.52,0006.15
2022-01-20 06:38:00,,0833.1,5.01,0.00,22.0,21.5,00.0,30.9,23.7,10.6,0000.7,0008.86,0006.52,0006.15
2022-01-20 06:39:00,,0833.1,5.00,0.00,22.0,21.4,00.0,30.9,23.7,10.7,0000.4,0008.87,0006.54,0006.17
2022-01-20 06:40:00,,0833.1,5.01,0.00,22.0,21.4,00.0,30.9,23.7,10.7,0000.0,0008.84,0006.55,0006.20
2022-01-20 06:41:00,,0833.1,5.00,0.00,21.9,21.3,00.0,30.9,23.6,10.7,0000.0,0008.69,0006.55,0006.21
2022-01-20 06:42:00,,0833.1,5.01,0.00,21.9,21.3,00.0,30.9,23.6,10.7,0000.0,0008.64,0006.55,0006.23
2022-01-20 06:43:00,,0833.1,5.00,0.00,21.9,21.3,00.0,30.9,23.6,10.7,0000.0,0008.75,0006.61,0006.27
2022-01-20 06:44:00,,0833.1,4.98,0.00,21.9,21.3,00.0,30.9,23.5,10.7,0000.0,0008.74,0006.63,0006.30
2022-01-20 06:45:00,,0833.1,4.99,0.00,21.9,21.2,00.0,30.9,23.5,10.7,0000.2,0008.91,0006.66,0006.34
2022-01-20 06:46:00,,0833.0,5.01,0.00,21.8,21.1,00.0,30.8,23.4,10.8,0000.0,0009.14,0006.68,0006.37
2022-01-20 06:47:00,,0833.0,4.99,0.00,21.8,21.1,00.0,30.8,23.4,10.8,0000.0,0009.12,0006.73,0006.42
2022-01-20 06:48:00,,0833.0,5.01,0.00,21.8,21.8,00.0,30.8,23.6,10.7,0000.0,0009.13,0006.79,0006.48
2022-01-20 06:49:00,,0833.1,4.99,0.00,22.0,22.7,00.0,30.9,23.9,10.6,0000.0,0009.14,0006.84,0006.54
2022-01-20 06:50:00,,0833.1,5.02,0.00,22.1,23.0,00.0,30.9,24.1,10.6,0000.0,0009.15,0006.86,0006.57
2022-01-20 06:51:00,,0833.0,4.98,0.00,22.1,22.6,00.0,30.9,24.0,10.5,0000.5,0009.19,0006.90,0006.60
2022-01-20 06:52:00,,0833.0,5.01,0.00,22.1,22.2,00.0,30.9,23.9,10.6,0001.8,0009.21,0006.94,0006.63
2022-01-20 06:53:00,,0833.1,5.00,0.00,22.1,21.9,00.0,30.9,23.8,10.6,0001.8,0009.23,0006.96,0006.64
2022-01-20 06:54:00,,0833.0,4.99,0.00,22.0,21.6,00.0,30.9,23.7,10.6,0001.3,0009.26,0006.98,0006.66
2022-01-20 06:55:00,,0833.0,5.01,0.00,22.0,21.4,00.0,30.9,23.7,10.6,0001.0,0009.28,0007.00,0006.67
2022-01-20 06:56:00,,0833.0,5.00,0.00,22.0,21.3,00.0,30.9,23.6,10.7,0001.5,0009.19,0007.02,0006.67
2022-01-20 06:57:00,,0833.0,4.99,0.00,21.9,21.2,00.0,30.9,23.6,10.7,0001.4,0008.91,0007.07,0006.70
2022-01-20 06:58:00,,0832.9,5.02,0.00,21.9,21.2,00.0,30.9,23.6,10.7,0001.8,0009.13,0007.09,0006.71
2022-01-20 06:59:00,,0832.9,4.99,0.00,21.9,21.2,00.0,30.9,23.6,10.8,0002.1,0009.24,0007.08,0006.68
